Location: Fontevrault
(47.1823°N, 0.0493°E)
Time: 18:32:20
(UTC+00:00)

Cosmos 1725 Rocket - Pass Details

Date: 22 October 2021
Orbit: 961 x 991 km, 82.9° (Epoch: 27 November)

Event Time Altitude Azimuth Distance (km) Brightness Sun altitude
Exits shadow 22:08:48 12° 334° (NNW) 2,538 6.6 -49.0°
Drops below altitude 10° 22:09:37 10° 341° (NNW) 2,718 6.8 -49.0°
Sets 22:13:00 0° 359° (N) 3,666 7.5 -49.4°
